This is the latest recevied weather packets stored in our database for station/object NN3A-3. If no packets are shown the sender has not sent any weather packets the latest 1 day(s).
| Time | Temp. | Humidity | Pressure | Rain* | Wind** | Luminosity | Snow |
|---|---|---|---|---|---|---|---|
| 1778083048 | 14.44° C | 98% | 1005.6 hPa | 0 mm | - | - | - |
| 1778082748 | 15° C | 98% | 1005.2 hPa | 0 mm | - | - | - |
| 1778080949 | 14.44° C | 99% | 1005.2 hPa | 0 mm | - | - | - |
| 1778080649 | 14.44° C | 99% | 1005.2 hPa | 0 mm | - | - | - |
| 1778080349 | 15° C | 99% | 1005.2 hPa | 0 mm | - | - | - |
| 1778078550 | 14.44° C | 98% | 1004.9 hPa | 0.51 mm | - | - | - |
| 1778078250 | 15° C | 98% | 1004.5 hPa | 0.51 mm | - | - | - |
| 1778076151 | 14.44° C | 98% | 1004.9 hPa | 0.51 mm | - | - | - |
| 1778074952 | 14.44° C | 98% | 1004.5 hPa | 0 mm | - | - | - |
| 1778073154 | 13.89° C | 98% | 1004.9 hPa | 0 mm | - | - | - |
| 1778072253 | 15° C | 97% | 1004.9 hPa | 0 mm | - | - | - |
| 1778071654 | 15° C | 97% | 1004.9 hPa | 0 mm | - | - | - |
| 1778070755 | 14.44° C | 97% | 1004.9 hPa | 0.76 mm | - | - | - |
| 1778070454 | 14.44° C | 97% | 1004.9 hPa | 0.76 mm | - | - | - |
| 1778070154 | 14.44° C | 97% | 1004.9 hPa | 0.76 mm | - | - | - |
| 1778068955 | 13.33° C | 97% | 1004.9 hPa | 0.76 mm | - | - | - |
| 1778068355 | 13.33° C | 97% | 1004.9 hPa | 0.76 mm | - | - | - |
| 1778068055 | 13.89° C | 97% | 1004.9 hPa | 0.76 mm | - | - | - |
| 1778067156 | 13.89° C | 97% | 1004.9 hPa | 1.78 mm | - | - | - |
| 1778065956 | 13.33° C | 96% | 1004.9 hPa | 1.78 mm | - | - | - |
| 1778064457 | 13.33° C | 95% | 1004.9 hPa | 1.78 mm | - | - | - |
| 1778064158 | 13.89° C | 94% | 1004.9 hPa | 0.51 mm | - | - | - |
| 1778063557 | 13.89° C | 94% | 1004.9 hPa | 0.51 mm | - | - | - |
| 1778062358 | 15° C | 93% | 1005.6 hPa | 0.51 mm | - | - | - |
| 1778061758 | 15° C | 92% | 1005.2 hPa | 0.51 mm | - | - | - |
* Rain latest hour (hover to see other rain measurements)
** Current wind speed in m/s (hover to see current wind gust speed)